Wind_Speed
37 37 37 37 38 37 37 36 36 36 35 35 36 36 36 37 38 39 40 41 41 42 43 44 44 44 44 44 44 45 45 45 45 46 48 47 47 46 45 45 44 43 43
38 38 38 39 38 38 37 36 36 36 36 36 36 36 36 36 37 38 38 40 41 41 43 44 45 46 47 47 46 46 46 47 48 48 49 50 49 48 47 46 45 45 44
39 39 40 40 39 39 38 38 37 37 37 37 37 37 37 37 38 38 39 40 41 42 44 45 46 47 47 48 48 48 48 49 50 51 51 51 51 51 49 48 47 46 46
40 40 41 40 40 40 39 39 38 38 37 37 37 36 37 37 37 38 39 40 41 42 43 45 46 48 49 49 49 49 49 50 51 52 52 52 52 53 52 51 50 48 47
41 42 41 41 41 41 40 40 39 38 37 36 35 35 35 35 36 37 37 38 39 41 42 44 45 48 50 51 51 52 52 52 52 52 53 54 54 53 53 52 51 51 51
42 42 42 42 42 41 40 39 39 37 36 35 34 34 34 35 35 36 37 37 38 40 41 43 44 46 48 51 53 54 54 54 54 54 54 54 54 54 54 53 52 53 52
43 43 42 42 42 42 41 40 39 37 36 35 34 34 34 34 34 35 36 36 37 39 40 41 43 44 46 49 53 55 56 55 55 55 56 55 55 55 55 54 53 53 53
43 43 43 43 42 42 41 40 39 38 36 35 34 34 33 33 33 33 34 35 36 37 38 39 41 43 45 47 50 54 56 57 56 56 56 57 56 56 56 56 56 55 55
44 44 43 43 42 41 40 40 39 37 36 35 33 32 32 32 32 32 32 32 33 34 35 36 38 40 43 46 48 51 54 57 57 57 57 58 58 58 57 56 56 56 56
44 44 44 43 41 40 40 39 38 37 36 34 32 32 31 31 30 30 29 29 29 30 32 33 35 37 40 43 45 48 51 54 56 57 57 58 58 58 58 57 56 56 55
44 44 43 42 41 40 39 39 38 36 35 32 31 30 29 28 27 27 26 26 26 27 28 29 30 33 36 38 41 44 48 51 53 56 57 58 59 58 59 57 56 56 55
44 44 43 42 41 40 39 39 37 36 34 32 30 29 28 26 25 25 24 24 23 23 23 24 26 28 30 33 37 39 43 48 50 53 55 56 57 57 58 58 56 56 57
44 44 43 42 41 40 39 38 37 35 33 32 29 28 27 26 25 23 22 21 21 20 19 20 22 23 26 28 32 36 39 43 46 49 52 53 55 55 56 57 58 56 55
44 43 42 41 41 40 39 38 36 34 33 31 29 28 27 26 24 22 21 19 17 16 16 16 17 18 20 23 27 31 35 38 41 44 47 50 52 54 55 56 55 55 54
44 43 42 41 41 39 38 37 35 34 32 30 28 27 27 25 23 21 19 17 15 14 12 11 12 13 16 19 22 25 29 33 37 40 43 46 49 51 53 54 53 53 52
43 42 42 41 40 39 37 36 35 33 31 30 28 26 25 24 22 20 19 17 14 12 10 9 10 11 13 16 19 22 25 29 32 35 38 42 44 47 49 51 51 51 51
43 42 42 40 39 38 37 36 34 33 31 29 27 25 25 24 21 20 18 16 14 12 10 8 8 8 10 13 16 19 22 24 28 31 34 37 40 43 46 47 47 48 48
42 41 41 40 38 37 36 35 34 32 30 28 27 25 24 23 21 20 18 16 14 12 10 8 7 7 9 11 13 16 19 22 25 27 30 33 36 39 42 44 46 45 45
41 40 40 38 37 36 35 34 33 31 30 28 26 25 23 22 20 19 17 16 15 13 11 9 6 6 8 10 13 15 17 20 22 24 27 31 34 36 38 41 43 44 44
40 39 38 37 35 35 34 33 33 31 30 28 26 25 23 21 20 19 17 16 15 13 12 10 6 4 6 8 11 14 16 18 20 22 24 27 30 32 34 36 39 41 41
39 38 37 36 35 33 33 33 32 30 29 27 26 25 23 21 19 18 18 15 15 14 13 11 7 4 3 7 10 12 14 16 18 20 22 24 27 29 31 33 36 37 38
38 37 36 35 34 32 32 32 30 29 27 26 25 24 22 21 19 18 17 16 14 14 13 11 8 5 2 3 6 9 12 14 16 18 21 23 24 26 28 31 33 34 35
37 36 34 34 33 32 31 30 29 28 26 25 24 23 21 20 18 17 17 17 15 13 12 10 8 6 4 2 4 8 10 12 15 17 19 21 23 24 27 29 30 31 32
35 34 33 32 32 31 29 29 28 26 25 24 22 21 19 18 17 17 16 16 16 15 13 11 9 7 5 3 3 6 8 10 13 15 16 18 20 22 24 26 28 29 30
34 33 32 30 30 29 28 26 25 24 22 21 20 20 19 17 17 17 17 16 15 15 14 11 10 8 7 5 4 5 6 8 10 12 14 16 19 20 22 24 25 26 27
33 32 30 29 28 27 25 24 23 22 21 19 19 18 18 17 16 16 16 16 16 15 14 12 10 9 7 6 5 5 5 6 9 11 13 14 16 18 19 21 23 24 25
Wind_Direction
325 323 321 319 317 315 311 307 304 300 296 293 289 286 282 279 276 272 269 266 263 259 257 254 251 249 246 245 243 241 238 234 232 230 228 227 225 223 221 221 221 222 222
327 326 324 322 320 318 315 311 307 302 299 295 292 287 284 281 277 274 270 267 264 260 257 254 252 249 246 244 243 241 240 237 233 229 228 227 225 224 222 220 221 222 221
328 327 326 324 322 320 316 312 309 304 300 297 293 288 285 281 278 275 272 269 266 262 258 255 252 249 246 244 242 240 238 236 234 229 227 226 226 224 223 222 222 221 221
330 329 327 325 323 321 317 314 310 307 303 299 295 291 287 283 280 277 274 270 267 264 260 256 252 249 246 244 241 239 237 235 233 230 227 226 225 225 225 224 224 223 222
332 330 329 327 326 323 319 316 313 310 306 303 298 294 290 286 283 279 276 273 268 265 261 257 253 249 246 243 240 238 236 234 232 230 227 226 225 225 224 225 225 223 222
334 333 331 329 328 325 323 320 317 313 310 306 302 297 294 290 286 282 278 274 270 266 262 258 254 250 246 242 239 237 235 233 232 230 228 226 224 224 224 224 225 223 223
335 334 333 331 329 328 325 323 320 317 313 309 305 301 297 293 290 286 282 276 272 267 264 259 255 251 247 243 239 236 234 232 231 230 228 227 225 224 224 224 224 223 223
337 335 334 332 331 329 328 326 323 320 317 313 309 305 302 298 294 290 285 280 274 269 264 261 256 251 247 243 239 237 234 232 231 229 228 227 226 224 224 224 225 224 223
338 336 335 334 332 331 330 328 326 323 320 316 312 309 306 302 297 293 289 284 278 272 267 262 257 252 247 243 240 237 235 232 231 229 227 226 225 224 223 223 225 225 224
339 338 336 335 334 333 332 331 330 327 323 319 317 314 311 307 302 299 294 289 282 275 270 264 258 252 247 243 240 237 234 232 230 228 227 226 225 224 223 223 224 225 225
340 339 338 337 337 335 335 334 333 331 328 325 323 321 318 313 310 306 301 295 288 280 273 266 259 253 248 243 238 236 233 231 229 228 226 226 225 224 224 224 224 225 225
341 341 340 339 339 338 337 336 335 335 334 331 330 328 326 322 317 312 307 302 294 286 278 269 260 253 247 242 237 234 231 229 228 226 225 224 224 225 225 224 224 225 225
342 342 341 341 340 340 339 339 338 338 337 335 333 332 331 328 325 321 316 309 302 292 281 271 261 255 248 241 236 232 229 227 226 225 223 222 222 222 223 224 224 224 223
344 343 343 342 342 341 341 341 341 340 339 338 336 335 334 332 330 327 325 320 312 303 291 278 263 253 245 238 233 229 227 225 224 223 222 221 220 220 221 222 223 223 224
344 344 344 344 344 343 343 344 344 343 341 340 339 338 338 337 336 335 332 330 324 314 302 285 266 253 242 234 231 228 225 223 221 221 220 220 220 221 220 220 220 220 222
345 345 344 344 345 345 345 345 345 345 345 345 343 342 342 342 341 340 338 335 332 325 313 290 271 257 240 233 230 226 221 220 219 218 218 218 219 220 220 221 220 219 221
344 344 345 345 345 346 347 347 346 345 347 348 347 346 346 346 345 344 341 340 337 331 321 303 278 258 244 232 224 219 218 216 215 215 215 216 218 218 218 218 219 219 220
344 344 344 345 346 347 349 349 349 348 348 349 348 348 348 349 348 346 346 346 346 343 335 318 288 258 240 227 218 213 213 212 212 214 214 214 214 214 214 217 218 219 220
343 343 344 345 346 347 349 350 351 351 350 351 350 350 350 351 352 352 353 352 351 350 348 340 314 266 239 224 216 212 211 210 211 212 213 212 211 212 212 214 216 217 217
341 342 343 344 345 346 348 349 351 352 353 354 354 353 352 353 354 356 356 356 358 357 352 347 333 287 242 222 215 211 210 211 209 210 210 211 211 210 209 210 212 213 213
340 340 341 343 344 346 347 348 350 352 354 356 357 357 357 357 358 360 1 2 3 3 1 360 355 335 266 223 215 212 210 209 209 209 209 208 207 207 205 206 207 210 211
338 338 339 341 343 344 345 348 350 352 354 356 357 358 359 1 3 6 7 7 5 5 5 7 10 4 351 219 204 200 202 205 204 202 202 202 201 203 203 203 204 207 210
336 336 338 340 341 342 343 345 348 350 352 355 358 359 1 4 7 9 10 10 10 10 11 14 18 27 36 99 172 186 193 198 197 196 197 199 200 200 201 202 203 206 208
332 334 335 337 338 340 341 343 346 349 353 356 359 2 4 7 8 9 11 13 16 18 18 19 24 31 41 71 135 167 180 186 188 190 194 197 200 202 203 204 204 203 204
329 330 331 333 335 337 339 341 344 348 352 357 1 4 5 6 7 10 12 14 16 19 22 26 33 41 50 74 116 147 161 173 180 186 190 194 196 197 200 200 202 203 206
325 326 328 330 332 335 337 339 342 346 351 356 359 3 6 10 14 16 17 19 22 25 29 34 41 47 54 69 96 119 143 161 172 179 185 189 193 195 197 199 202 204 204
Height
5766 5760 5754 5748 5742 5736 5731 5725 5721 5717 5713 5710 5707 5704 5702 5700 5699 5698 5698 5699 5700 5702 5703 5706 5709 5712 5716 5720 5724 5729 5734 5739 5744 5750 5755 5760 5766 5772 5778 5785 5790 5796 5802
5758 5751 5745 5739 5733 5726 5721 5716 5711 5706 5702 5699 5695 5693 5690 5688 5687 5686 5685 5685 5686 5688 5689 5692 5695 5698 5703 5707 5711 5716 5721 5727 5733 5738 5743 5749 5755 5762 5768 5774 5781 5787 5793
5750 5744 5737 5730 5724 5717 5712 5706 5701 5696 5691 5687 5683 5680 5678 5676 5674 5673 5672 5672 5672 5673 5675 5677 5680 5683 5688 5692 5697 5703 5708 5713 5720 5726 5732 5737 5744 5751 5757 5764 5770 5777 5784
5743 5736 5729 5722 5715 5708 5702 5696 5690 5685 5680 5675 5671 5668 5665 5663 5661 5659 5658 5658 5658 5658 5660 5662 5665 5668 5673 5677 5683 5688 5694 5700 5706 5713 5719 5725 5732 5739 5746 5753 5760 5767 5774
5735 5728 5720 5713 5706 5699 5692 5686 5680 5674 5669 5664 5660 5656 5652 5650 5647 5645 5644 5644 5644 5644 5645 5646 5649 5652 5657 5662 5667 5673 5679 5686 5692 5699 5706 5713 5720 5727 5734 5742 5749 5756 5763
5728 5720 5713 5705 5698 5690 5683 5676 5669 5663 5658 5653 5648 5644 5641 5637 5635 5632 5631 5630 5629 5629 5630 5631 5633 5637 5641 5646 5651 5658 5664 5671 5678 5686 5693 5700 5708 5715 5722 5730 5737 5745 5753
5721 5713 5705 5697 5689 5682 5674 5667 5660 5653 5647 5642 5637 5633 5629 5625 5622 5619 5617 5615 5615 5614 5615 5616 5618 5621 5624 5629 5635 5641 5648 5655 5663 5671 5679 5687 5695 5704 5711 5719 5725 5733 5742
5714 5706 5698 5690 5681 5673 5665 5658 5651 5644 5638 5632 5626 5622 5617 5613 5610 5606 5603 5601 5600 5600 5600 5601 5603 5605 5609 5613 5618 5625 5632 5640 5648 5657 5666 5674 5681 5689 5698 5706 5714 5721 5729
5708 5699 5691 5682 5674 5666 5658 5650 5642 5635 5628 5622 5616 5611 5606 5602 5598 5594 5591 5589 5587 5586 5586 5586 5588 5590 5593 5597 5603 5610 5616 5624 5631 5641 5650 5658 5667 5676 5684 5693 5701 5709 5717
5701 5693 5684 5675 5667 5659 5651 5642 5634 5627 5620 5613 5607 5602 5597 5592 5587 5583 5579 5577 5575 5573 5573 5573 5574 5576 5579 5582 5588 5594 5601 5609 5617 5625 5634 5644 5653 5662 5671 5680 5688 5697 5705
5696 5687 5678 5669 5661 5653 5644 5636 5628 5620 5612 5606 5600 5594 5588 5583 5578 5573 5570 5566 5564 5562 5560 5560 5561 5562 5565 5569 5574 5580 5587 5594 5602 5611 5620 5630 5639 5648 5658 5667 5675 5684 5693
5690 5681 5672 5664 5655 5647 5638 5630 5621 5613 5606 5599 5593 5587 5581 5575 5570 5566 5562 5558 5555 5552 5551 5550 5550 5551 5554 5557 5562 5568 5574 5581 5589 5598 5607 5617 5626 5636 5645 5654 5662 5672 5681
5685 5676 5667 5658 5650 5641 5633 5624 5616 5608 5601 5594 5587 5581 5575 5570 5564 5559 5555 5551 5547 5545 5543 5542 5542 5543 5545 5548 5552 5557 5563 5570 5578 5587 5596 5605 5614 5623 5632 5641 5650 5659 5668
5681 5672 5663 5654 5646 5637 5628 5620 5612 5604 5596 5589 5583 5577 5571 5565 5559 5554 5550 5545 5542 5539 5537 5536 5535 5536 5538 5540 5544 5549 5554 5561 5568 5576 5584 5593 5601 5611 5620 5629 5638 5647 5656
5677 5668 5659 5651 5642 5633 5625 5616 5608 5600 5592 5585 5579 5573 5567 5561 5555 5550 5545 5541 5538 5535 5533 5531 5531 5532 5533 5535 5539 5542 5547 5553 5560 5567 5575 5583 5591 5600 5609 5618 5628 5637 5646
5673 5664 5656 5647 5638 5630 5622 5613 5605 5598 5590 5583 5576 5570 5564 5558 5552 5547 5543 5538 5535 5532 5530 5529 5529 5529 5530 5532 5534 5538 5542 5547 5553 5559 5567 5574 5582 5591 5599 5608 5617 5627 5636
5669 5661 5652 5644 5635 5627 5619 5611 5603 5595 5588 5581 5574 5568 5562 5556 5550 5545 5541 5536 5533 5530 5528 5527 5526 5526 5527 5529 5531 5534 5538 5542 5548 5554 5560 5567 5574 5582 5591 5600 5608 5617 5626
5665 5657 5649 5641 5633 5625 5617 5609 5601 5593 5586 5579 5573 5566 5560 5555 5549 5544 5540 5536 5532 5529 5527 5525 5524 5524 5525 5526 5529 5531 5535 5539 5544 5549 5555 5561 5568 5575 5583 5591 5600 5608 5617
5662 5654 5646 5638 5630 5623 5615 5607 5600 5592 5585 5578 5572 5566 5560 5554 5549 5544 5540 5536 5532 5529 5526 5524 5522 5522 5523 5524 5527 5529 5533 5536 5541 5545 5550 5556 5562 5569 5576 5584 5592 5600 5608
5658 5650 5643 5635 5628 5621 5613 5606 5599 5591 5584 5577 5571 5565 5559 5554 5549 5545 5540 5536 5532 5529 5526 5523 5522 5521 5521 5523 5525 5527 5530 5534 5538 5542 5546 5551 5557 5563 5570 5577 5585 5593 5601
5654 5647 5640 5633 5626 5619 5612 5605 5598 5591 5584 5577 5571 5565 5560 5554 5549 5545 5541 5537 5533 5530 5526 5524 5522 5520 5520 5521 5523 5526 5528 5532 5535 5539 5543 5548 5553 5559 5565 5572 5580 5587 5594
5650 5644 5637 5630 5624 5617 5611 5604 5597 5590 5584 5578 5572 5566 5561 5555 5550 5546 5542 5538 5534 5531 5528 5525 5523 5521 5521 5521 5522 5524 5527 5530 5533 5537 5541 5546 5551 5556 5562 5568 5575 5582 5589
5646 5640 5634 5628 5621 5615 5609 5603 5596 5590 5584 5578 5572 5567 5562 5557 5552 5548 5544 5540 5536 5532 5530 5527 5525 5523 5522 5522 5523 5524 5527 5529 5533 5536 5540 5545 5549 5554 5559 5565 5571 5577 5584
5642 5636 5631 5625 5619 5613 5607 5601 5595 5589 5584 5578 5573 5568 5563 5558 5554 5550 5546 5542 5538 5535 5532 5529 5527 5525 5524 5524 5524 5525 5527 5530 5532 5536 5539 5543 5548 5552 5557 5562 5567 5573 5580
5637 5632 5627 5621 5616 5611 5605 5600 5595 5589 5584 5579 5574 5569 5565 5560 5556 5552 5548 5544 5541 5538 5535 5532 5530 5528 5527 5526 5527 5527 5529 5531 5533 5536 5539 5542 5546 5551 5555 5560 5565 5571 5577
5632 5627 5623 5618 5613 5608 5603 5598 5594 5589 5584 5579 5575 5571 5567 5562 5558 5555 5551 5547 5544 5540 5538 5535 5533 5532 5531 5530 5530 5530 5531 5532 5534 5536 5539 5542 5546 5550 5554 5558 5563 5569 5575